"Pseudo-MPEC" for P10Ij6Z

Created 2018 Jul 17 16:18:04 UT using Find_Orb

Click here for an explanation of pseudo-MPECs

 
 Astrometry: 
     P10Ij6Z  C2018 07 10hFAstrometry]Lm7OEr-1rkUYbnq7v._W294e[ZH^`og,*fX7Q*(F51
     P10Ij6Z  C2018 07 10-dEU5\RC\7!n*5YeIredacted;\#/Q$P8b=JyHU\Us'e.==+y.,HF51
     P10Ij6Z  C2018 07 10lu[WDq5.#m^;UUeT$tj3GKxUhoaB#GjoseeC%'AQpOTchoC4L!c=F51
     P10Ij6Z  C2018 07 10i0hg@W7[Sn(w%EGSov-XdVvbEc.?Rbt8s1sLYIw[%v(3k%@NEOCPF51

Station data:
(F51) Pan-STARRS 1, Haleakala  (N20.707235 W156.255910)  US/Hawaii.
   Observers N. Primak, A. Schultz, S. Watters, J. Thiel, T. Goggia. Measurer
   PS1 Science Consortium. 1.8-m Ritchey-Chrétien + CCD.

Orbital elements:  P10Ij6Z
   Perihelion 2018 Jun 16.526479 +/- 42.1 TT = 12:38:07 (JD 2458286.026479)
Epoch 2018 Jul 11.0 TT = JDT 2458310.5   Earth MOID: 0.1940   Ma: 0.0955
M   6.10772 +/- 52                  (J2000 ecliptic)          AutoNEOCP
n   0.24956455 +/- 0.471            Peri.  333.16670 +/- 140
a   2.49850820 +/- 3.15             Node   312.56074 +/- 19
e   0.5178367 +/- 0.258             Incl.    5.80045 +/- 60
P   3.95                   H 22.3   G  0.15   U 12.2  SR
q 1.20468886 +/- 0.511    Q 3.79232755 +/- 23.8
From 4 observations 2018 July 10 (46.9 min); mean residual 0".08
Residuals in arcseconds: 
180710 F51  .05-  .09+    180710 F51  .11+  .04+    
180710 F51  .02+  .16-    180710 F51  .08-  .02+    

Ephemerides (geocentric):
Date (UTC) HH   RA              Dec         delta   r     elong  mag " sig PA
---- -- -- --  -------------   -----------  ------ ------ -----  --- ---- ---
2018 07 17 16  00 06 10.759   +00 58 43.57  .43841 1.2542 113.0 22.9  59d 177
2018 07 17 17  00 06 13.770   +00 59 43.29  .43842 1.2543 113.0 22.9  60d 177
2018 07 17 18  00 06 16.775   +01 00 42.96  .43843 1.2544 113.0 22.9  60d 178
2018 07 17 19  00 06 19.774   +01 01 42.59  .43844 1.2546 113.0 22.9  60d 178
2018 07 17 20  00 06 22.767   +01 02 42.18  .43845 1.2547 113.1 22.9  60d 178
2018 07 17 21  00 06 25.753   +01 03 41.73  .43846 1.2548 113.1 22.9  60d 178
2018 07 17 22  00 06 28.733   +01 04 41.23  .43847 1.2550 113.1 22.9  60d 178
2018 07 17 23  00 06 31.707   +01 05 40.69  .43848 1.2551 113.1 22.9  60d 178
2018 07 18 00  00 06 34.675   +01 06 40.10  .43850 1.2552 113.1 22.9  61d 178
2018 07 18 01  00 06 37.636   +01 07 39.47  .43851 1.2553 113.2 22.9  61d 178
2018 07 18 02  00 06 40.591   +01 08 38.80  .43852 1.2555 113.2 22.9  61d 178
2018 07 18 03  00 06 43.540   +01 09 38.08  .43853 1.2556 113.2 22.9  61d 178
2018 07 18 04  00 06 46.482   +01 10 37.32  .43854 1.2557 113.2 22.9  61d 178
2018 07 18 05  00 06 49.418   +01 11 36.52  .43855 1.2559 113.3 22.9  61d 178
2018 07 18 06  00 06 52.348   +01 12 35.67  .43856 1.2560 113.3 22.9  61d 178
2018 07 18 07  00 06 55.271   +01 13 34.78  .43858 1.2561 113.3 22.9  61d 178
2018 07 18 08  00 06 58.189   +01 14 33.84  .43859 1.2563 113.3 22.9  61d 178
2018 07 18 09  00 07 01.100   +01 15 32.86  .43860 1.2564 113.3 22.9  61d 178
2018 07 18 10  00 07 04.004   +01 16 31.84  .43861 1.2565 113.4 22.8  61d 178
2018 07 18 11  00 07 06.903   +01 17 30.77  .43862 1.2566 113.4 22.8  61d 178
2018 07 18 12  00 07 09.795   +01 18 29.66  .43863 1.2568 113.4 22.8  61d 178
2018 07 18 13  00 07 12.681   +01 19 28.50  .43864 1.2569 113.4 22.8  61d 178
2018 07 18 14  00 07 15.560   +01 20 27.30  .43866 1.2570 113.5 22.8  61d 178
2018 07 18 15  00 07 18.434   +01 21 26.06  .43867 1.2572 113.5 22.8  61d 178
2018 07 18 16  00 07 21.301   +01 22 24.77  .43868 1.2573 113.5 22.8  62d 178
2018 07 18 17  00 07 24.161   +01 23 23.44  .43869 1.2574 113.5 22.8  62d 178
2018 07 18 18  00 07 27.016   +01 24 22.07  .43870 1.2576 113.5 22.8  62d 178
2018 07 18 19  00 07 29.864   +01 25 20.65  .43872 1.2577 113.6 22.8  62d 178
2018 07 18 20  00 07 32.706   +01 26 19.18  .43873 1.2578 113.6 22.8  62d 178
2018 07 18 21  00 07 35.541   +01 27 17.67  .43874 1.2580 113.6 22.8  62d 178
2018 07 18 22  00 07 38.371   +01 28 16.12  .43875 1.2581 113.6 22.8  62d 178
2018 07 18 23  00 07 41.194   +01 29 14.53  .43876 1.2582 113.7 22.8  62d 178
2018 07 19 00  00 07 44.011   +01 30 12.89  .43878 1.2584 113.7 22.8  62d 178
2018 07 19 01  00 07 46.821   +01 31 11.20  .43879 1.2585 113.7 22.8  62d 178
2018 07 19 02  00 07 49.625   +01 32 09.47  .43880 1.2586 113.7 22.8  62d 178
2018 07 19 03  00 07 52.423   +01 33 07.70  .43881 1.2588 113.7 22.8  62d 178
2018 07 19 04  00 07 55.215   +01 34 05.88  .43883 1.2589 113.8 22.8  62d 178
2018 07 19 05  00 07 58.000   +01 35 04.02  .43884 1.2590 113.8 22.8  62d 178
2018 07 19 06  00 08 00.779   +01 36 02.12  .43885 1.2592 113.8 22.8  62d 179
2018 07 19 07  00 08 03.552   +01 37 00.17  .43886 1.2593 113.8 22.8  62d 179
2018 07 19 08  00 08 06.319   +01 37 58.17  .43887 1.2594 113.9 22.8  62d 179
2018 07 19 09  00 08 09.079   +01 38 56.13  .43889 1.2596 113.9 22.8  63d 179
2018 07 19 10  00 08 11.833   +01 39 54.05  .43890 1.2597 113.9 22.8  63d 179
2018 07 19 11  00 08 14.580   +01 40 51.92  .43891 1.2598 113.9 22.8  63d 179
2018 07 19 12  00 08 17.322   +01 41 49.75  .43892 1.2600 114.0 22.8  63d 179
2018 07 19 13  00 08 20.057   +01 42 47.54  .43894 1.2601 114.0 22.8  63d 179
2018 07 19 14  00 08 22.786   +01 43 45.28  .43895 1.2602 114.0 22.8  63d 179
2018 07 19 15  00 08 25.508   +01 44 42.97  .43896 1.2604 114.0 22.8  63d 179